Regional Weather Roundup
Issued by NWS New Orleans/Baton Rouge, LA

Home | Current Version | Previous Version | Text Only | Print | Product List | Glossary On
Versions: 1 2 3 4 5 6 7 8 9 10 11 12 13 14 15 16 17 18 19 20 21 22 23 24 25 26 27 28 29 30 31 32 33 34 35 36 37 38 39 40 41 42 43 44 45 46 47 48 49 50
711
ASUS44 KLIX 271411
RWRLIX
NEW ORLEANS REGIONAL WEATHER ROUNDUP
NATIONAL WEATHER SERVICE NEW ORLEANS LA
900 AM CDT FRI MAR 27 2015

NOTE: "FAIR" INDICATES FEW OR NO CLOUDS BELOW 12,000 FEET WITH NO
      SIGNIFICANT WEATHER AND/OR OBSTRUCTIONS TO VISIBILITY.
      SKY/WX - SKY CONDITION AND SIGNIFICANT WEATHER.
      TMP - AIR TEMPERATURE.     DP    - DEWPOINT TEMPERATURE.
      RH  - RELATIVE HUMIDITY.   PRES  - PRESSURE.
      HI  - HEAT INDEX.          WCI   - WIND CHILL INDEX.

*  THESE STATIONS ARE NOT NWS OR FAA STATIONS AND ARE NOT UNDER
   NWS QUALITY CONTROL.

LAZ038-040-048-061>063-065>067-069-271500-
SOUTHEAST LOUISIANA

CITY           SKY/WX    TMP DP  RH WIND       PRES   REMARKS
N.O. AUDUBON   NOT AVBL
N.O. INTL ARPT PTSUNNY   54  44  69 N15       30.06R
N.O. LAKEFRONT MOSUNNY   55  45  68 N20G25    30.07R
SLIDELL          N/A     52  43  71 VRB7G21   30.05R
BATON ROUGE    SUNNY     51  33  50 N8        30.10R
BOOTHVILLE     CLOUDY    55  50  83 NW20G25   30.02R
BELLE CHASSE   PTSUNNY   54  44  69 N9G21     30.05R
BOGALUSA*        N/A     52  43  71 NW8       30.07R
GALLIANO*      SUNNY     56  47  73 MISG      30.05R
NEW ROADS*       N/A     51  38  60 N7        30.12R
GONZALES*        N/A     52  38  58 N10       30.08R
HAMMOND*       SUNNY     54  41  62 N12G17    30.08S
HOUMA*         NOT AVBL
PORT FOURCHON* MOSUNNY   55  48  76 N16       30.08R

$$

MSZ070-080>082-271500-
SOUTHERN MISSISSIPPI

CITY           SKY/WX    TMP DP  RH WIND       PRES   REMARKS
MCCOMB         SUNNY     49  34  56 N10       30.08R
GULFPORT       MOSUNNY   53  43  68 N17G23    30.01R
BILOXI         MOSUNNY   54  45  72 N12G22    30.00R
PASCAGOULA     CLOUDY    52  45  77 N12G20    30.00R
STENNIS ARPT*  SUNNY     52  39  62 N12G17    30.05R

$$

COASTAL OBSERVATIONS
LAKE AND NEARSHORE STATIONS

STATION/POSITION TIME  TEMP    WIND        PRES    WAVE
                       AIR SEA DIR/SP/G            HT/PER
                 (UTC) (F)     (DEG/KT/KT) (MB)    (FT/S)
PASCAGOULA       1300   52     350/ 13/ 17 1014.0
WAVELAND YACHT   1300   51 65  330/ 12/ 19 1015.5
GRAND ISLE       1300   56 69  350/ 15/ 22 1016.1
SOUTHWEST PASS   1300   56 51  350/ 20/ 25 1016.1
NEW CANAL        1300   54     340/ 10/ 20 1017.4
SHELL BEACH      1300   53 68  340/ 20/ 25 1016.1

OFFSHORE STATIONS

STATION/POSITION TIME  TEMP    WIND        PRES    WAVE
                       AIR SEA DIR/SP/G            HT/PER
                 (UTC) (F)     (DEG/KT/KT) (MB)    (FT/S)
64 S DAUPHIN ISL 1350   59 73  340/ 25/ 29 1013.8    6/ 5

$$




USA.gov is the U.S. government's official web portal to all federal, state and local government web resources and services.